Stündliche Wetter Dabizhuang

Heute, 28 Oktober, Mittwoch

Zeit Temperatur Niederschläge Wind Luftdruck Luftfeuchtigkeit
00:00 +12°C° 0 mm 2 m/S 770 mmHg 18%
01:00 +12°C° 0 mm 2 m/S 770 mmHg 19%
02:00 +11°C° 0 mm 1 m/S 770 mmHg 19%
03:00 +11°C° 0 mm 1 m/S 770 mmHg 20%
04:00 +9°C° 0 mm 2 m/S 770 mmHg 20%
05:00 +9°C° 0 mm 2 m/S 770 mmHg 21%
06:00 +10°C° 0 mm 1 m/S 770 mmHg 21%
07:00 +11°C° 0 mm 1 m/S 771 mmHg 20%
08:00 +11°C° 0 mm 1 m/S 771 mmHg 20%
09:00 +13°C° 0 mm 1 m/S 771 mmHg 17%
10:00 +15°C° 0 mm 1 m/S 771 mmHg 15%
11:00 +18°C° 0 mm 1 m/S 771 mmHg 13%
12:00 +19°C° 0 mm 1 m/S 770 mmHg 12%
13:00 +20°C° 0 mm 1 m/S 770 mmHg 11%
14:00 +20°C° 0 mm 1 m/S 769 mmHg 10%
15:00 +19°C° 0 mm 1 m/S 769 mmHg 11%
16:00 +18°C° 0 mm 1 m/S 769 mmHg 13%
17:00 +18°C° 0 mm 1 m/S 769 mmHg 14%
18:00 +16°C° 0 mm 2 m/S 769 mmHg 16%
19:00 +15°C° 0 mm 2 m/S 769 mmHg 19%
20:00 +14°C° 0 mm 2 m/S 770 mmHg 21%
21:00 +13°C° 0 mm 2 m/S 770 mmHg 23%
22:00 +13°C° 0 mm 2 m/S 770 mmHg 26%
23:00 +13°C° 0 mm 2 m/S 770 mmHg 28%

Morgen, 29 Oktober, Donnerstag

Zeit Temperatur Niederschläge Wind Luftdruck Luftfeuchtigkeit
00:00 +12°C° 0 mm 1 m/S 770 mmHg 29%
01:00 +12°C° 0 mm 1 m/S 770 mmHg 30%
02:00 +11°C° 0 mm 1 m/S 769 mmHg 31%
03:00 +11°C° 0 mm 1 m/S 770 mmHg 32%
04:00 +10°C° 0 mm 0 m/S 770 mmHg 32%
05:00 +10°C° 0 mm 0 m/S 770 mmHg 33%
06:00 +10°C° 0 mm 0 m/S 770 mmHg 33%
07:00 +12°C° 0 mm 1 m/S 770 mmHg 33%
08:00 +13°C° 0 mm 1 m/S 770 mmHg 33%
09:00 +14°C° 0 mm 1 m/S 770 mmHg 31%
10:00 +15°C° 0 mm 1 m/S 770 mmHg 30%
11:00 +17°C° 0 mm 2 m/S 770 mmHg 28%
12:00 +17°C° 0 mm 2 m/S 769 mmHg 25%
13:00 +18°C° 0 mm 2 m/S 769 mmHg 22%
14:00 +19°C° 0 mm 2 m/S 768 mmHg 20%
15:00 +18°C° 0 mm 2 m/S 768 mmHg 21%
16:00 +19°C° 0 mm 1 m/S 768 mmHg 21%
17:00 +18°C° 0 mm 1 m/S 768 mmHg 22%
18:00 +16°C° 0 mm 1 m/S 769 mmHg 26%
19:00 +15°C° 0 mm 1 m/S 769 mmHg 30%
20:00 +14°C° 0 mm 1 m/S 769 mmHg 34%
21:00 +13°C° 0 mm 1 m/S 769 mmHg 35%
22:00 +13°C° 0 mm 1 m/S 770 mmHg 37%
23:00 +12°C° 0 mm 1 m/S 770 mmHg 38%

übermorgen, 30 Oktober, Freitag

Zeit Temperatur Niederschläge Wind Luftdruck Luftfeuchtigkeit
00:00 +12°C° 0 mm 1 m/S 770 mmHg 39%
01:00 +11°C° 0 mm 1 m/S 770 mmHg 41%
02:00 +11°C° 0 mm 1 m/S 770 mmHg 42%
03:00 +10°C° 0 mm 0 m/S 770 mmHg 43%
04:00 +9°C° 0 mm 0 m/S 770 mmHg 45%
05:00 +9°C° 0 mm 0 m/S 770 mmHg 46%
06:00 +10°C° 0 mm 0 m/S 770 mmHg 44%
07:00 +10°C° 0 mm 0 m/S 770 mmHg 43%
08:00 +12°C° 0 mm 1 m/S 770 mmHg 41%
09:00 +14°C° 0 mm 1 m/S 770 mmHg 36%
10:00 +16°C° 0 mm 1 m/S 770 mmHg 31%
11:00 +19°C° 0 mm 1 m/S 770 mmHg 27%
12:00 +19°C° 0 mm 2 m/S 770 mmHg 26%
13:00 +19°C° 0 mm 2 m/S 769 mmHg 26%
14:00 +20°C° 0 mm 3 m/S 768 mmHg 25%
15:00 +19°C° 0 mm 3 m/S 768 mmHg 29%
16:00 +18°C° 0 mm 3 m/S 768 mmHg 33%
17:00 +17°C° 0 mm 3 m/S 767 mmHg 37%
18:00 +16°C° 0 mm 3 m/S 767 mmHg 40%
19:00 +16°C° 0 mm 3 m/S 767 mmHg 44%
20:00 +14°C° 0 mm 3 m/S 767 mmHg 47%
21:00 +14°C° 0 mm 3 m/S 767 mmHg 48%
22:00 +15°C° 0 mm 2 m/S 767 mmHg 49%
23:00 +15°C° 0 mm 2 m/S 767 mmHg 50%

31 Oktober, Samstag

Zeit Temperatur Niederschläge Wind Luftdruck Luftfeuchtigkeit
00:00 +15°C° 0 mm 2 m/S 766 mmHg 50%
01:00 +15°C° 0 mm 2 m/S 766 mmHg 51%
02:00 +14°C° 0 mm 1 m/S 765 mmHg 51%
03:00 +14°C° 0.2 mm 2 m/S 765 mmHg 57%
04:00 +14°C° 0.2 mm 2 m/S 765 mmHg 64%
05:00 +13°C° 0.2 mm 2 m/S 764 mmHg 70%
06:00 +13°C° 0.1 mm 2 m/S 764 mmHg 71%
07:00 +14°C° 0.1 mm 1 m/S 764 mmHg 72%
08:00 +14°C° 0.1 mm 1 m/S 763 mmHg 73%
09:00 +15°C° 0 mm 2 m/S 763 mmHg 66%
10:00 +17°C° 0 mm 2 m/S 763 mmHg 60%
11:00 +18°C° 0 mm 3 m/S 763 mmHg 53%
12:00 +19°C° 0 mm 3 m/S 762 mmHg 46%
13:00 +20°C° 0 mm 3 m/S 762 mmHg 39%
14:00 +21°C° 0 mm 4 m/S 761 mmHg 32%
15:00 +21°C° 0 mm 3 m/S 761 mmHg 28%
16:00 +20°C° 0 mm 3 m/S 761 mmHg 25%
17:00 +19°C° 0 mm 2 m/S 761 mmHg 22%
18:00 +18°C° 0 mm 3 m/S 762 mmHg 21%
19:00 +17°C° 0 mm 3 m/S 762 mmHg 20%
20:00 +16°C° 0 mm 3 m/S 763 mmHg 19%
21:00 +16°C° 0 mm 3 m/S 763 mmHg 19%
22:00 +15°C° 0 mm 4 m/S 764 mmHg 19%
23:00 +14°C° 0 mm 4 m/S 764 mmHg 18%

1 November, Sonntag

Zeit Temperatur Niederschläge Wind Luftdruck Luftfeuchtigkeit
00:00 +14°C° 0 mm 3 m/S 764 mmHg 19%
01:00 +13°C° 0 mm 3 m/S 764 mmHg 20%
02:00 +14°C° 0 mm 2 m/S 763 mmHg 21%
03:00 +13°C° 0 mm 1 m/S 763 mmHg 22%
04:00 +12°C° 0 mm 1 m/S 763 mmHg 23%
05:00 +11°C° 0 mm 0 m/S 763 mmHg 24%
06:00 +11°C° 0 mm 0 m/S 764 mmHg 24%
07:00 +13°C° 0 mm 1 m/S 764 mmHg 23%
08:00 +13°C° 0 mm 1 m/S 764 mmHg 23%
09:00 +15°C° 0 mm 2 m/S 764 mmHg 20%
10:00 +16°C° 0 mm 2 m/S 764 mmHg 18%
11:00 +18°C° 0 mm 3 m/S 764 mmHg 16%
12:00 +18°C° 0 mm 4 m/S 764 mmHg 15%
13:00 +19°C° 0 mm 4 m/S 763 mmHg 15%
14:00 +19°C° 0 mm 4 m/S 763 mmHg 15%
15:00 +19°C° 0 mm 5 m/S 763 mmHg 15%
16:00 +17°C° 0 mm 5 m/S 763 mmHg 15%
17:00 +16°C° 0 mm 5 m/S 763 mmHg 16%
18:00 +15°C° 0 mm 6 m/S 764 mmHg 15%
19:00 +14°C° 0 mm 7 m/S 765 mmHg 14%
20:00 +12°C° 0 mm 8 m/S 766 mmHg 13%
21:00 +11°C° 0 mm 8 m/S 767 mmHg 15%
22:00 +10°C° 0 mm 8 m/S 767 mmHg 16%
23:00 +9°C° 0 mm 8 m/S 768 mmHg 18%

2 November, Montag

Zeit Temperatur Niederschläge Wind Luftdruck Luftfeuchtigkeit
00:00 +8°C° 0 mm 7 m/S 769 mmHg 19%
01:00 +7°C° 0 mm 5 m/S 769 mmHg 20%
02:00 +6°C° 0 mm 4 m/S 769 mmHg 20%
03:00 +6°C° 0 mm 4 m/S 769 mmHg 21%
04:00 +5°C° 0 mm 3 m/S 770 mmHg 21%
05:00 +6°C° 0 mm 2 m/S 770 mmHg 21%
06:00 +5°C° 0 mm 3 m/S 770 mmHg 21%
07:00 +7°C° 0 mm 3 m/S 770 mmHg 21%
08:00 +8°C° 0 mm 3 m/S 771 mmHg 21%
09:00 +8°C° 0 mm 4 m/S 771 mmHg 18%
10:00 +9°C° 0 mm 6 m/S 770 mmHg 16%
11:00 +11°C° 0 mm 7 m/S 770 mmHg 14%
12:00 +11°C° 0 mm 8 m/S 770 mmHg 13%
13:00 +11°C° 0 mm 8 m/S 769 mmHg 13%
14:00 +12°C° 0 mm 8 m/S 769 mmHg 12%
15:00 +11°C° 0 mm 7 m/S 769 mmHg 12%
16:00 +10°C° 0 mm 6 m/S 769 mmHg 12%
17:00 +9°C° 0 mm 6 m/S 769 mmHg 12%
18:00 +8°C° 0 mm 6 m/S 770 mmHg 13%
19:00 +7°C° 0 mm 5 m/S 770 mmHg 14%
20:00 +6°C° 0 mm 5 m/S 771 mmHg 15%
21:00 +5°C° 0 mm 5 m/S 771 mmHg 16%
22:00 +4°C° 0 mm 4 m/S 772 mmHg 17%
23:00 +3°C° 0 mm 4 m/S 772 mmHg 19%
Mehr zeigen

Wir brauchen deine Erlaubnis

Meteoprog und unser Service Anbieter werden persönliche Daten aufbewahren, so wie Cookies, Geräte Bezeichnung oder ähnliche Technologien von deinem Gerät und Prozess, so wie Persönliche Daten Inhalte und Werbungen, genauso wie social Media und den Verkehr zu analysieren.

  • Aufbewahrung und/oder Zugang zu deiner Geräte Informationen.

    Cookies, Geräte Bezeichnung oder andere Informationen, können aufbewahrt oder Zugang zu deinem Gerät erhalten, für den Grund, der oben angegeben wird.

  • Personalisierte Werbung und Inhalte, Messungen, Einblick in das Publikum und Produkt Entwicklung.

    Werbungen und Inhalte können personalisiert werden, basierend auf ein Profil. Mehr Daten können besser personalisierte Werbungen und Inhalte hinzufügen. Werbung und Inhalte können gezeigt und gemessen werden. Einblicke über das Publikum, welche die Werbung gesehen haben und den Inhalt, können abgeleitet werden. So wie Daten können genutzt werden, um es zu verbessern oder die Benutzer Erfahrung zu verbessern das System und die Software.

Wenn du “Ich stimme zu” klickst, erlaubst du uns, die Cookies zu benutzen die Geräte Bezeichnung, den Web oder ähnliche Technologien zu benutzen. Deine Settings, können in deinem Gerät bei deinem Browser geändert werden.

Für den bestimmten Zweck, berechtigten Interessen beruhen darauf, mehr als auf den Inhalt. Du kannst mehr darüber in unseren Privaten und Cookie Politik lesen.